Weather History for KGUY - August, 2014

Change the Weather History Date:

Saturday, August 2, 2014

  Actual Average Record
Temperature  
Mean Temperature 77 °F 79 °F  
Max Temperature 90 °F 93 °F 104 °F (2010)
Min Temperature 63 °F 66 °F 63 °F (2002)
Degree Days  
Heating Degree Days 0 0  
Month to date heating degree days 0 0  
Since 1 June heating degree days 9 8  
Since 1 July heating degree days 4 0  
Cooling Degree Days 12 14  
Month to date cooling degree days 20 29  
Year to date cooling degree days 973 871  
Since 1 June cooling degree days 795 763  
Growing Degree Days 27 (Base 50)    
Moisture  
Dew Point 55 °F    
Average Humidity 56    
Maximum Humidity 87    
Minimum Humidity 24    
Precipitation  
Precipitation 0.00 in 0.08 in 1.67 in (2006)
Month to date precipitation 0.00 0.15  
Year to date precipitation 7.71 12.00  
Snow  
Snow 0.00 in - - ()
Month to date snowfall 0.0  
Since 1 June snowfall 0.0  
Since 1 July snowfall 0.0  
Snow Depth 0.00 in    
Sea Level Pressure  
Sea Level Pressure 30.05 in    
Wind  
Wind Speed 6 mph (East)    
Max Wind Speed 12 mph    
Max Gust Speed 17 mph    
Visibility 10 miles    
Events      
T = Trace of Precipitation, MM = Missing Value Source: NWS Daily Summary

Daily Weather History Graph

Daily Weather History Graph

Search for Another Location

Airport or City:

Trip Planner

Search our weather history database for the weather conditions in past years. The results will help you decide how hot, cold, wet, or windy it might be!

Date:

Astronomy

Aug. 02, 2014 Rise Set
Actual Time 6:52 AM CDT 8:51 PM CDT
Civil Twilight 6:24 AM CDT 9:19 PM CDT
Nautical Twilight 5:49 AM CDT 9:54 PM CDT
Astronomical Twilight 5:12 AM CDT 10:31 PM CDT
Moon 1:05 PM CDT (8/2) No Moon Set
Length of Visible Light 14h 55m
Length of Day
13h 58m
Waxing Crescent, 37% of the Moon is Illuminated
Aug 2
Waxing Crescent
Aug 3
First Quarter
Aug 10
Full
Aug 17
Last Quarter
Aug 25
New

Hourly Weather History & Observations

Time (CDT) Temp. Heat Index Dew Point Humidity Pressure Visibility Wind Dir Wind Speed Gust Speed Precip Events Conditions
12:53 AM 70.0 °F - 60.1 °F 71% 30.04 in 10.0 mi SSW 4.6 mph - N/A   Clear
1:53 AM 68.0 °F - 60.1 °F 76% 30.04 in 10.0 mi SSW 3.5 mph - N/A   Clear
3:53 AM 68.0 °F - 59.0 °F 73% 30.04 in 10.0 mi NNW 3.5 mph - N/A   Mostly Cloudy
4:53 AM 66.9 °F - 60.1 °F 79% 30.03 in 10.0 mi Calm Calm - N/A   Clear
5:53 AM 64.9 °F - 60.1 °F 84% 30.05 in 10.0 mi WNW 5.8 mph - N/A   Clear
6:53 AM 64.0 °F - 60.1 °F 87% 30.08 in 10.0 mi WNW 4.6 mph - N/A   Mostly Cloudy
7:53 AM 64.9 °F - 61.0 °F 87% 30.09 in 10.0 mi WNW 5.8 mph - N/A   Clear
8:53 AM 70.0 °F - 62.1 °F 76% 30.10 in 10.0 mi North 4.6 mph - N/A   Clear
9:53 AM 78.1 °F - 62.1 °F 58% 30.08 in 10.0 mi North 6.9 mph - N/A   Clear
10:53 AM 82.0 °F 82.1 °F 59.0 °F 45% 30.08 in 10.0 mi NNE 4.6 mph - N/A   Clear
11:53 AM 84.0 °F 83.0 °F 55.9 °F 38% 30.08 in 10.0 mi ENE 4.6 mph - N/A   Clear
12:53 PM 87.1 °F 85.1 °F 54.0 °F 32% 30.06 in 10.0 mi Variable 3.5 mph - N/A   Partly Cloudy
1:53 PM 87.1 °F - 52.0 °F 30% 30.06 in 10.0 mi NNE 11.5 mph 17.3 mph N/A   Mostly Cloudy
2:53 PM 89.1 °F - 51.1 °F 27% 30.04 in 10.0 mi NNE 8.1 mph - N/A   Clear
3:53 PM 89.1 °F - 51.1 °F 27% 30.02 in 10.0 mi ESE 8.1 mph - N/A   Clear
4:53 PM 90.0 °F - 51.1 °F 26% 30.01 in 10.0 mi East 9.2 mph - N/A   Partly Cloudy
5:53 PM 89.1 °F - 48.9 °F 25% 30.01 in 10.0 mi East 8.1 mph - N/A   Partly Cloudy
6:53 PM 86.0 °F - 50.0 °F 29% 30.01 in 10.0 mi ESE 6.9 mph - N/A   Scattered Clouds
7:53 PM 81.0 °F - 46.0 °F 29% 30.02 in 10.0 mi SE 5.8 mph - N/A   Clear
8:53 PM 75.9 °F - 48.9 °F 38% 30.03 in 10.0 mi SSE 5.8 mph - N/A   Clear
9:53 PM 73.0 °F - 51.1 °F 46% 30.04 in 10.0 mi SE 4.6 mph - N/A   Clear
10:53 PM 71.1 °F - 52.0 °F 51% 30.05 in 10.0 mi SSE 4.6 mph - N/A   Clear
11:53 PM 66.9 °F - 55.0 °F 66% 30.07 in 10.0 mi South 4.6 mph - N/A   Clear